NOAA NWS Hourly Roundups by Site

Regional Weather Roundup for Seattle, WA

To Select Another Site Choose from List

Select Site:  

000
ASUS46 KSEW 080420
RWRWA

WASHINGTON REGIONAL WEATHER ROUNDUP
NATIONAL WEATHER SERVICE SEATTLE WA
900 PM PDT TUE JUL 07 2020

NOTE:"FAIR" INDICATES FEW OR NO CLOUDS BELOW 12,000 FEET WITH NO
SIGNIFICANT WEATHER AND/OR OBSTRUCTIONS TO VISIBILITY.

WAZ507-509-555>559-080500-
SEATTLE, TACOMA, EVERETT, AND VICINITY

CITY           SKY/WX    TMP DP  RH WIND       PRES   REMARKS
EVERETT        CLEAR     59  50  72 E3        30.10F
BOEING FIELD   MOCLDY    63  54  72 VRB5      30.08S
RENTON         CLOUDY    63  54  72 N5        30.08S
SEATAC AIRPORT MOCLDY    63  55  75 NE9       30.09S
JBLM-MCCHORD   CLOUDY    64  53  67 W10       30.09R
PUYALLUP       LGT RAIN  59  59 100 CALM      30.10R
BREMERTON      MOCLDY    59  54  83 NE5       30.10S
JBLM-FT LEWIS  MOCLDY    64  60  87 SW10      30.08R
TACOMA NARROWS CLOUDY    57  55  93 NW3       30.10R
$$

WAZ001-503-506-510-514-515-080500-
NORTH INTERIOR

CITY           SKY/WX    TMP DP  RH WIND       PRES   REMARKS
BELLINGHAM     CLOUDY    61  51  70 S6        30.08R
FRIDAY HARBOR  PTCLDY    53  49  86 CALM      30.09R
EASTSOUND      CLOUDY    59  52  77 S8        30.06S
PORT ANGELES   CLOUDY    57  51  80 W9        30.11R
EDIZ HOOK      CLOUDY   N/A N/A N/A W8        30.10S
PORT TOWNSEND  MOCLDY    57  52  82 CALM      30.09S
NAS WHIDBEY    NOT AVBL
ARLINGTON      CLOUDY    61  54  77 CALM      30.10S
BURLINGTON     CLOUDY    61  52  72 S7        30.09S
$$

WAZ020-022-039-040-504-511-512-080500-
SOUTHWEST INTERIOR

CITY           SKY/WX    TMP DP  RH WIND       PRES   REMARKS
SHELTON        PTCLDY    60  54  80 W9        30.07S
OLYMPIA        CLEAR     60  54  80 SW5       30.10R
CHEHALIS       FAIR      61  55  82 CALM      30.11S
KELSO          PTCLDY    61  55  81 W5        30.13R
VANCOUVER      MOCLDY    65  54  67 VRB5      30.10R
SCAPPOOSE, OR  PTCLDY    61  53  75 NW5       30.11R
PORTLAND, OR   PTCLDY    65  56  72 N5        30.11R
$$

WAZ021-516-517-080500-
WASHINGTON COAST

CITY           SKY/WX    TMP DP  RH WIND       PRES   REMARKS
FORKS          PTCLDY    56  53  90 CALM      30.11S
HOQUIAM        CLOUDY    60  55  83 W9        30.12R
ASTORIA, OR    CLOUDY    59  52  77 W6        30.13S
$$

WAZ019-023-024-040-567>569-080500-
CASCADE MOUNTAINS AND COLUMBIA GORGE

CITY           SKY/WX    TMP DP  RH WIND       PRES   REMARKS
STAMPEDE PASS  FOG       48  46  93 VRB7      30.10S VSB 3/4
TROUTDALE, OR  MOCLDY    63  56  78 CALM      30.11R
HOOD RIVER, OR CLOUDY    63  52  67 W6        30.08R
THE DALLES, OR PTCLDY    66  52  60 NW15      30.04R
$$

WAZ026-027-041>044-520-521-080500-
EAST SLOPES

CITY           SKY/WX    TMP DP  RH WIND       PRES   REMARKS
OMAK           PTCLDY    68  45  43 N9        29.90R
WENATCHEE      CLEAR     64  41  42 W16       29.95R
ELLENSBURG     PTCLDY    61  46  57 W16G25    30.02R
YAKIMA         PTCLDY    64  44  48 W7        30.00R
SUNNYSIDE ARPT CLEAR     64  48  56 W7        29.98R
YAKIMA TC      FAIR      65  40  40 NW13      29.98S
$$

WAZ028-034-035-080500-
COLUMBIA BASIN

CITY           SKY/WX    TMP DP  RH WIND       PRES   REMARKS
EPHRATA        CLEAR     67  38  34 NW18      29.92R
MOSES LAKE     CLEAR     70  39  32 W12       29.93R
PASCO          PTCLDY    67  48  50 NW8       29.96R
RICHLAND ARPT  CLEAR     71  42  35 NW10      29.96R
HERMISTON, OR  CLOUDY    69  47  45 SW15      29.98R
$$

WAZ036>038-080500-
NORTHEAST WASHINGTON

CITY           SKY/WX    TMP DP  RH WIND       PRES   REMARKS
SPOKANE GEIGER MOCLDY    60  49  66 N6        29.95R
SPOKANE FELTS  MOCLDY    62  50  64 N9        29.94R
FAIRCHILD AFB  MOCLDY    60  51  73 NE8       29.95R
COEURDALENE,ID CLOUDY    58  52  80 N10       29.95S
DEER PARK      CLOUDY    57  52  83 MISG      29.96R
$$

WAZ029>033-080500-
SOUTHEAST WASHINGTON

CITY           SKY/WX    TMP DP  RH WIND       PRES   REMARKS
PULLMAN        CLOUDY    63  46  54 SW6       30.00R
LEWISTON, ID   PTCLDY    70  42  36 W8        29.95R
WALLA WALLA    MOCLDY    69  45  41 SW14      29.98R
PENDLETON, OR  CLEAR     65  44  46 W18       30.01R
$$


 

View Past Reports for Seattle, WA.

Products Courtesy of NOAA-NWS
NWS Information Parsing Script by Ken True at Saratoga Weather - Script by SE Lincoln Weather.